Location: Unspecified
(51.7833°N, 0.0000°E)
Time: 04:14:33
(UTC+00:00)

Cosmos 514 Rocket - Visible Passes

Search period start: 05 April 2026 00:00
Search period end: 15 April 2026 00:00
Orbit: 947 x 958 km, 83.0° (Epoch: 29 March)

Date Brightness Start Highest point End Pass type
(mag) Time Alt. Az. Time Alt. Az. Time Alt. Az.
5 Apr 5.0 19:45:55 10° N 19:52:04 68° ENE 19:58:11 10° SSE visible
5 Apr 6.9 21:31:35 10° NNW 21:36:25 25° W 21:41:13 10° SW visible
6 Apr 5.0 20:04:22 10° NNW 20:10:34 83° W 20:16:42 10° S visible
6 Apr 7.4 21:50:49 10° NW 21:54:29 17° WNW 21:58:09 10° WSW visible
7 Apr 5.6 20:22:57 10° NNW 20:28:57 57° W 20:34:55 10° S visible
7 Apr 7.7 22:11:17 10° WNW 22:12:28 11° WNW 22:13:39 10° W visible
8 Apr 6.3 20:41:38 10° NNW 20:47:14 38° W 20:52:49 10° SSW visible
9 Apr 5.0 19:14:53 10° N 19:21:02 65° ENE 19:27:07 10° SSE visible
9 Apr 6.9 21:00:29 10° NNW 21:05:26 26° W 21:10:21 10° SW visible
10 Apr 5.0 19:33:20 10° N 19:39:32 87° W 19:45:40 10° S visible
10 Apr 7.5 21:19:40 10° NW 21:23:31 18° WNW 21:27:22 10° WSW visible
11 Apr 5.6 19:51:54 10° NNW 19:57:57 60° W 20:03:56 10° S visible
11 Apr 7.8 21:39:44 10° NW 21:41:30 11° WNW 21:43:16 10° W visible
12 Apr 6.3 20:10:34 10° NNW 20:16:15 40° W 20:21:52 10° SSW visible
13 Apr 7.0 20:29:24 10° NNW 20:34:27 27° W 20:39:28 10° SW visible
14 Apr 7.5 20:48:30 10° NW 20:52:32 19° WNW 20:56:34 10° WSW visible
